Bradford, PA

5:46 PM EDT on October 20, 2019 (GMT -0400)
Bradford Regional

Weather History for KBFD - August, 2019

Change the Weather History Date:

Friday, August 2, 2019

  Actual Average Record
Temperature  
Mean Temperature 68 °F 65 °F  
Max Temperature 81 °F 77 °F 93 °F (1988)
Min Temperature 55 °F 53 °F 41 °F (1985)
Degree Days  
Heating Degree Days 0 0  
Month to date heating degree days 0 0  
Since 1 June heating degree days 134 209  
Since 1 July heating degree days 12 64  
Cooling Degree Days 3 2  
Month to date cooling degree days 6 4  
Year to date cooling degree days 196 128  
Since 1 June cooling degree days 189 118  
Growing Degree Days 17 (Base 50)    
Moisture  
Dew Point 62 °F    
Average Humidity 77    
Maximum Humidity 100    
Minimum Humidity 54    
Precipitation  
Precipitation 0.55 in 0.14 in 1.03 in (1980)
Month to date precipitation 0.55 0.28  
Year to date precipitation 28.52 26.12  
Sea Level Pressure  
Sea Level Pressure 30.12 in    
Wind  
Wind Speed 3 mph (ESE)    
Max Wind Speed 25 mph    
Max Gust Speed 32 mph    
Visibility 6 miles    
Events Fog , Rain , Thunderstorm    
T = Trace of Precipitation, MM = Missing Value Source: NWS Daily Summary

Daily Weather History Graph

Daily Weather History Graph

Search for Another Location

Airport or City:

Astronomy

Aug. 02, 2019 Rise Set
Actual Time 6:09 AM EDT 8:31 PM EDT
Civil Twilight 5:37 AM EDT 9:02 PM EDT
Nautical Twilight 4:59 AM EDT 9:41 PM EDT
Astronomical Twilight 4:15 AM EDT 10:24 PM EDT
Moon 7:46 AM EDT (8/2) 9:57 PM EDT (8/2)
Length of Visible Light 15h 25m
Length of Day
14h 22m
Waxing Crescent, 4% of the Moon is Illuminated
Aug 2
Waxing Crescent
Aug 7
First Quarter
Aug 15
Full
Aug 23
Last Quarter
Aug 30
New

Hourly Weather History & Observations

Time (EDT) Temp. Dew Point Humidity Pressure Visibility Wind Dir Wind Speed Gust Speed Precip Events Conditions
12:53 AM 61.0 °F 57.0 °F 87% 30.16 in 10.0 mi Calm Calm - N/A   Clear
1:53 AM 57.0 °F 55.9 °F 96% 30.16 in 10.0 mi Calm Calm - N/A   Clear
2:53 AM 57.9 °F 55.9 °F 93% 30.15 in 10.0 mi Calm Calm - N/A   Clear
3:53 AM 57.0 °F 55.0 °F 93% 30.14 in 10.0 mi Calm Calm - N/A   Clear
4:53 AM 55.9 °F 55.0 °F 97% 30.14 in 10.0 mi Calm Calm - N/A   Clear
5:53 AM 55.9 °F 54.0 °F 93% 30.13 in 10.0 mi Calm Calm - N/A   Clear
6:53 AM 57.0 °F 55.0 °F 93% 30.14 in 10.0 mi Calm Calm - N/A   Clear
7:53 AM 63.0 °F 57.9 °F 84% 30.15 in 10.0 mi Calm Calm - N/A   Mostly Cloudy
8:53 AM 66.9 °F 59.0 °F 76% 30.16 in 10.0 mi ESE 6.9 mph - N/A   Clear
9:53 AM 71.1 °F 61.0 °F 70% 30.15 in 10.0 mi ESE 4.6 mph - N/A   Overcast
10:53 AM 75.0 °F 64.0 °F 69% 30.14 in 10.0 mi East 5.8 mph - N/A   Mostly Cloudy
11:53 AM 75.9 °F 63.0 °F 64% 30.13 in 10.0 mi SSE 8.1 mph - N/A   Mostly Cloudy
12:53 PM 77.0 °F 63.0 °F 62% 30.12 in 10.0 mi Variable 4.6 mph - N/A   Overcast
1:53 PM 78.1 °F 60.1 °F 54% 30.11 in 10.0 mi SSW 8.1 mph - N/A   Overcast
2:19 PM 79.0 °F 60.1 °F 52% 30.14 in 10.0 mi South 8.1 mph - N/A Thunderstorm Overcast
2:53 PM 77.0 °F 64.0 °F 64% 30.10 in 10.0 mi NE 3.5 mph - N/A   Overcast
3:15 PM 77.0 °F 64.0 °F 64% 30.13 in 10.0 mi ENE 4.6 mph - N/A Thunderstorm Overcast
3:53 PM 78.1 °F 64.0 °F 62% 30.09 in 10.0 mi Calm Calm - N/A   Mostly Cloudy
4:27 PM 66.9 °F 63.0 °F 87% 30.13 in 1.8 mi East 23.0 mph 27.6 mph 0.14 in Rain , Thunderstorm Thunderstorms and Rain
4:40 PM 70.0 °F 62.1 °F 76% 30.12 in 3.0 mi East 20.7 mph 32.2 mph 0.19 in Rain , Thunderstorm Light Thunderstorms and Rain
4:53 PM 72.0 °F 64.9 °F 78% 30.10 in 3.0 mi East 9.2 mph - 0.30 in Rain , Thunderstorm Light Thunderstorms and Rain
5:24 PM 70.0 °F 63.0 °F 78% 30.12 in 10.0 mi NE 4.6 mph - 0.00 in Thunderstorm Partly Cloudy
5:53 PM 71.1 °F 64.9 °F 81% 30.09 in 10.0 mi NNE 3.5 mph - 0.00 in Thunderstorm Mostly Cloudy
6:27 PM 68.0 °F 64.9 °F 90% 30.11 in 4.0 mi West 6.9 mph - 0.02 in Rain Rain
6:35 PM 68.0 °F 64.9 °F 90% 30.10 in 2.5 mi North 6.9 mph - 0.05 in Rain Light Rain
6:44 PM 68.0 °F 64.9 °F 90% 30.10 in 8.0 mi NNW 5.8 mph - 0.05 in Rain Light Rain
6:53 PM 68.0 °F 64.9 °F 90% 30.08 in 8.0 mi Calm Calm - 0.06 in Rain Light Rain
7:30 PM 68.0 °F 66.0 °F 93% 30.11 in 3.0 mi Calm Calm - 0.03 in Rain , Thunderstorm Light Rain
7:44 PM 68.0 °F 66.0 °F 93% 30.11 in 6.0 mi SE 3.5 mph - 0.04 in Rain , Thunderstorm Light Thunderstorms and Rain
7:53 PM 68.0 °F 66.0 °F 93% 30.09 in 4.0 mi North - - 0.05 in Rain , Thunderstorm Light Thunderstorms and Rain
7:57 PM 68.0 °F 64.9 °F 90% 30.12 in 2.5 mi West 4.6 mph - 0.03 in Rain , Thunderstorm Light Thunderstorms and Rain
8:13 PM 66.9 °F 64.9 °F 93% 30.13 in 5.0 mi North 8.1 mph - 0.09 in Rain , Thunderstorm Light Thunderstorms and Rain
8:53 PM 66.0 °F 64.9 °F 96% 30.10 in 5.0 mi SSW 4.6 mph - 0.12 in Rain , Thunderstorm Light Thunderstorms and Rain
9:08 PM 66.0 °F 64.9 °F 96% 30.15 in 8.0 mi West 4.6 mph - 0.01 in Rain Light Rain
9:53 PM 66.0 °F 64.9 °F 96% 30.10 in 10.0 mi SW 3.5 mph - 0.01 in   Partly Cloudy
10:46 PM 64.0 °F 64.0 °F 100% 30.13 in 0.8 mi SE 5.8 mph - 0.01 in   Mist
10:49 PM 64.4 °F 64.4 °F 100% 30.13 in 0.5 mi SE 5.8 mph - 0.01 in Fog Fog
10:53 PM 64.0 °F 64.0 °F 100% 30.09 in 1.0 mi SE 4.6 mph - 0.01 in   Mist
10:56 PM 64.0 °F 64.0 °F 100% 30.13 in 2.0 mi SE 4.6 mph - N/A   Partly Cloudy
11:04 PM 64.0 °F 64.0 °F 100% 30.13 in 3.0 mi Calm Calm - N/A   Mostly Cloudy
11:14 PM 64.0 °F 64.0 °F 100% 30.13 in 4.0 mi Calm Calm - N/A   Scattered Clouds
11:25 PM 63.0 °F 63.0 °F 100% 30.14 in 1.5 mi Calm Calm - N/A   Scattered Clouds
11:37 PM 63.0 °F 63.0 °F 100% 30.13 in 0.2 mi Calm Calm - N/A Fog Fog
11:53 PM 63.0 °F 62.1 °F 97% 30.09 in 0.2 mi Calm Calm - N/A Fog Fog